Regional Weather Roundup
Issued by NWS New Orleans/Baton Rouge, LA

Home | Current Version | Previous Version | Graphics & Text | Print | Product List | Glossary On
Versions: 1 2 3 4 5 6 7 8 9 10 11 12 13 14 15 16 17 18 19 20 21 22 23 24 25 26 27 28 29 30 31 32 33 34 35 36 37 38 39 40 41 42 43 44 45 46 47 48 49 50
125
ASUS44 KLIX 220201
RWRLIX
NEW ORLEANS REGIONAL WEATHER ROUNDUP
NATIONAL WEATHER SERVICE NEW ORLEANS LA
900 PM CDT THU AUG 21 2014

NOTE: "FAIR" INDICATES FEW OR NO CLOUDS BELOW 12,000 FEET WITH NO
      SIGNIFICANT WEATHER AND/OR OBSTRUCTIONS TO VISIBILITY.
      SKY/WX - SKY CONDITION AND SIGNIFICANT WEATHER.
      TMP - AIR TEMPERATURE.     DP    - DEWPOINT TEMPERATURE.
      RH  - RELATIVE HUMIDITY.   PRES  - PRESSURE.
      HI  - HEAT INDEX.          WCI   - WIND CHILL INDEX.

*  THESE STATIONS ARE NOT NWS OR FAA STATIONS AND ARE NOT UNDER
   NWS QUALITY CONTROL.

LAZ038-040-048-061>063-065>067-069-220300-
SOUTHEAST LOUISIANA

CITY           SKY/WX    TMP DP  RH WIND       PRES   REMARKS
N.O. AUDUBON   NOT AVBL
N.O. INTL ARPT CLOUDY    79  72  79 CALM      30.11S
N.O. LAKEFRONT MOCLDY    83  75  77 W10       30.12R
N.O. DOWNTOWN*   N/A     82  70  65 CALM      30.12S
SLIDELL        MOCLDY    80  74  81 CALM      30.10S
BATON ROUGE    CLOUDY    77  75  93 NE3       30.12R
BOOTHVILLE     PTCLDY    84  76  76 CALM      30.12R
BELLE CHASSE   MOCLDY    77  73  87 W3        30.11R
BOGALUSA*        N/A     81  75  81 CALM      30.13R
GALLIANO*      NOT AVBL
NEW ROADS*       N/A     76  73  92 E5        30.12R
GONZALES*        N/A     78  78 100 CALM      30.11R
HAMMOND*       NOT AVBL
HOUMA*         CLOUDY    78  72  81 CALM      30.12S
PORT FOURCHON* CLOUDY    86  77  74 CALM      30.13R HX  97

$$

MSZ070-080>082-220300-
SOUTHERN MISSISSIPPI

CITY           SKY/WX    TMP DP  RH WIND       PRES   REMARKS
MCCOMB         CLOUDY    79  74  84 W5        30.12S
GULFPORT       MOCLDY    84  75  74 CALM      30.10S
BILOXI         PTCLDY    85  75  72 SW6       30.10F
PASCAGOULA     PTCLDY    79  76  90 CALM      30.10F

$$

COASTAL OBSERVATIONS
LAKE AND NEARSHORE STATIONS

STATION/POSITION TIME  TEMP    WIND        PRES    WAVE
                       AIR SEA DIR/SP/G            HT/PER
                 (UTC) (F)     (DEG/KT/KT) (MB)    (FT/S)
PASCAGOULA       0100   87     240/  8/ 10 1019.0
WAVELAND YACHT   0100   85     260/  5/  7 1019.0
GRAND ISLE       0100   85 90   20/  3/  3 1020.4
SOUTHWEST PASS   0100   86 88  230/  1/  2 1020.1
NEW CANAL        0100   83 85  250/  5/  7 1020.1
SHELL BEACH      0100   82 83  240/  3/  4 1019.5

OFFSHORE STATIONS

STATION/POSITION TIME  TEMP    WIND        PRES    WAVE
                       AIR SEA DIR/SP/G            HT/PER
                 (UTC) (F)     (DEG/KT/KT) (MB)    (FT/S)
64 S DAUPHIN ISL 0146   86 90  260/  2/  4 1020.2

$$




USA.gov is the U.S. government's official web portal to all federal, state and local government web resources and services.